ELECTRON KICK STAGE R/B (53817 NORAD) Tracking and Keplerian Element Data

This shows tracking and keplerian element data for the satellite.

Feedback or suggestion? Click here.




ElementValue
Catalog53817
NameELECTRON KICK STAGE R/B
Epoch Orbit388
Epoch Day284.76598955
Epoch Year2022
RAAN335.3029
Inclination97.6581
Eccentricity0.001306
Argument of Perigee204.8589
Mean Anonmoly155.2023
Mean Motion15.00459369
Decay Rate7.692E-05
L11 53817U 22113C 22284.76598955 .00007692 00000+0 61449-3 0 9995
L22 53817 97.6581 335.3029 0013060 204.8589 155.2023 15.00459369 3882



Live tracking and technical data element details for ELECTRON KICK STAGE R/B (NORAD 53817). ELECTRON KICK STAGE R/B can be tracked NOW for your location showing map with azimuth and elevation plus other details from your city location.







IsCatalogInMostPopularTable: catalog: 53817, numindb: -1

Insert: records affected: 1


GetName: 53817 ELECTRON KICK STAGE R/B

Hit Count: inserted at: Thu, 08 Dec 2022 09:23:26 GMT